FW6381 Weather Reports


Display with metric or nautical units.
time (UTC)temp
F
wind
direction
speed
MPH
gust
MPH
rain 1hr
in
rain 24hr
in
rain mn
in
humidity
%
barometer
mb
20260504050503 51 230 14.0 27.0 0.00 0.00 0.00 68 1009.1
20260504050215 51 232 15.0 29.0 0.00 0.00 0.00 68 1009.2
20260504045503 51 229 14.0 29.0 0.00 0.00 0.00 68 1009.2
20260504045003 51 228 11.0 22.0 0.00 0.00 0.00 67 1009.3
20260504044505 50 235 11.0 24.0 0.00 0.00 0.00 67 1009.4
20260504044003 50 238 11.0 24.0 0.00 0.00 0.00 68 1009.4
20260504043505 50 245 9.0 19.0 0.00 0.00 0.00 68 1009.4
20260504043003 50 256 8.0 18.0 0.00 0.00 0.00 68 1009.4
20260504042503 50 246 8.0 18.0 0.00 0.00 0.00 67 1009.3
20260504042003 50 233 9.0 19.0 0.00 0.00 0.00 67 1009.3
20260504041503 50 235 10.0 19.0 0.00 0.00 0.00 67 1009.2
20260504041003 50 238 13.0 27.0 0.00 0.00 0.00 66 1009.2
20260504040505 50 240 13.0 28.0 0.00 0.00 0.00 66 1009.2
20260504040005 50 235 13.0 28.0 0.00 0.00 0.00 66 1009.3
20260504035503 50 227 11.0 27.0 0.00 0.00 0.00 65 1009.2
20260504035005 51 227 12.0 27.0 0.00 0.00 0.00 65 1009.1
20260504034504 51 228 12.0 24.0 0.00 0.00 0.00 65 1009.2
20260504034212 51 227 12.0 24.0 0.00 0.00 0.00 64 1009.1
20260504033715 51 229 10.0 22.0 0.00 0.00 0.00 65 1009.2
20260504033003 51 241 10.0 20.0 0.00 0.00 0.00 64 1009.3
20260504032503 52 242 12.0 27.0 0.00 0.00 0.00 63 1009.4
20260504032004 52 241 13.0 29.0 0.00 0.00 0.00 62 1009.3
20260504031504 52 235 14.0 29.0 0.00 0.00 0.00 62 1009.4
20260504031005 52 230 13.0 27.0 0.00 0.00 0.00 60 1009.4
20260504030503 52 229 12.0 27.0 0.00 0.00 0.00 60 1009.5
20260504030003 52 228 12.0 31.0 0.00 0.00 0.00 60 1009.4
20260504025503 52 229 13.0 31.0 0.00 0.00 0.00 60 1009.5
20260504025003 52 230 13.0 31.0 0.00 0.00 0.00 60 1009.4
20260504024503 52 229 14.0 29.0 0.00 0.00 0.00 60 1009.3
20260504024003 52 230 14.0 29.0 0.00 0.00 0.00 60 1009.4
20260504023503 52 234 14.0 28.0 0.00 0.00 0.00 60 1009.4
20260504023003 52 232 14.0 28.0 0.00 0.00 0.00 60 1009.4
20260504022503 52 228 14.0 28.0 0.00 0.00 0.00 60 1009.3
20260504022003 52 231 14.0 28.0 0.00 0.00 0.00 60 1009.5
20260504021504 52 234 14.0 26.0 0.00 0.00 0.00 62 1009.6
20260504021003 52 231 13.0 26.0 0.00 0.00 0.00 62 1009.5
20260504020503 52 226 13.0 26.0 0.00 0.00 0.00 63 1009.5
20260504020004 52 227 11.0 26.0 0.00 0.00 0.00 63 1009.5
20260504015505 52 224 11.0 29.0 0.00 0.00 0.00 62 1009.5
20260504015003 52 224 13.0 29.0 0.00 0.00 0.00 62 1009.5
20260504014503 52 232 14.0 29.0 0.00 0.00 0.00 62 1009.4
20260504014003 52 232 14.0 27.0 0.00 0.00 0.00 62 1009.5
20260504013714 52 229 13.0 26.0 0.00 0.00 0.00 62 1009.4
20260504013003 52 227 12.0 26.0 0.00 0.00 0.00 60 1009.5
20260504012503 53 228 12.0 26.0 0.00 0.00 0.00 59 1009.5
20260504012213 53 229 11.0 24.0 0.00 0.00 0.00 58 1009.5
20260504011504 54 232 10.0 23.0 0.00 0.00 0.00 56 1009.6
20260504011213 54 233 10.0 23.0 0.00 0.00 0.00 54 1009.5
20260504010503 54 239 8.0 19.0 0.00 0.00 0.00 53 1009.5
20260504010005 54 240 10.0 23.0 0.00 0.00 0.00 53 1009.4
20260504005714 54 241 11.0 23.0 0.00 0.00 0.00 53 1009.4
20260504005003 54 247 14.0 23.0 0.00 0.00 0.00 53 1009.3
20260504004503 54 246 14.0 33.0 0.00 0.00 0.00 53 1009.3
20260504004213 54 243 14.0 33.0 0.00 0.00 0.00 54 1009.4
20260504003504 54 247 11.0 22.0 0.00 0.00 0.00 54 1009.3
20260504003003 53 250 11.0 23.0 0.00 0.00 0.00 56 1009.4
20260504002503 53 245 12.0 23.0 0.00 0.00 0.00 56 1009.3
20260504002003 53 243 13.0 24.0 0.00 0.00 0.00 56 1009.3
20260504001714 53 245 13.0 24.0 0.00 0.00 0.00 57 1009.3
20260504001004 53 249 13.0 27.0 0.00 0.00 0.00 58 1009.4
20260504000714 53 248 14.0 27.0 0.00 0.00 0.00 58 1009.4
20260504000003 53 249 11.0 27.0 0.00 0.00 0.00 58 1009.5
20260503235503 53 251 11.0 18.0 0.00 0.00 0.00 58 1009.6
20260503235003 53 253 12.0 22.0 0.00 0.00 0.00 58 1009.5
20260503234503 53 251 13.0 23.0 0.00 0.00 0.00 58 1009.6
20260503234004 53 248 14.0 24.0 0.00 0.00 0.00 58 1009.8
20260503233503 53 250 13.0 24.0 0.00 0.00 0.00 58 1009.7
20260503233003 53 251 11.0 24.0 0.00 0.00 0.00 59 1009.8
20260503232505 53 254 12.0 24.0 0.00 0.00 0.00 59 1009.7
20260503232003 53 254 13.0 23.0 0.00 0.00 0.00 60 1009.7
20260503231505 53 250 12.0 23.0 0.00 0.00 0.00 60 1009.8
20260503231003 53 252 13.0 31.0 0.00 0.00 0.00 60 1009.6
20260503230503 53 253 14.0 31.0 0.00 0.00 0.00 62 1009.8
20260503230003 53 245 15.0 31.0 0.00 0.00 0.00 60 1009.8
20260503225503 53 249 16.0 33.0 0.00 0.00 0.00 60 1009.8
20260503225003 53 252 15.0 33.0 0.00 0.00 0.00 60 1009.8
20260503224713 53 249 14.0 33.0 0.00 0.00 0.00 60 1009.8
20260503224005 53 243 14.0 28.0 0.00 0.00 0.00 60 1009.8
20260503223503 53 243 12.0 27.0 0.00 0.00 0.00 60 1009.9
20260503223003 53 241 12.0 23.0 0.00 0.00 0.00 60 1009.9
20260503222504 53 245 14.0 32.0 0.00 0.00 0.00 62 1010.0
20260503222005 52 251 15.0 32.0 0.00 0.00 0.00 63 1010.1
20260503221503 52 247 15.0 31.0 0.00 0.00 0.00 62 1010.1
20260503221214 52 245 15.0 28.0 0.00 0.00 0.00 62 1010.1
20260503220713 52 244 15.0 41.0 0.00 0.00 0.00 62 1009.9
20260503220003 52 241 17.0 41.0 0.00 0.00 0.00 62 1009.8
20260503215503 52 237 16.0 31.0 0.00 0.00 0.00 63 1009.8
20260503215005 52 235 14.0 31.0 0.00 0.00 0.00 63 1009.8
20260503214505 52 237 14.0 27.0 0.00 0.00 0.00 64 1009.8
20260503214005 52 238 14.0 31.0 0.00 0.00 0.00 64 1009.7
20260503213503 52 230 13.0 31.0 0.00 0.00 0.00 65 1009.6
20260503213003 52 228 12.0 26.0 0.00 0.00 0.00 66 1009.5
20260503212503 52 229 12.0 26.0 0.00 0.00 0.00 66 1009.4
20260503212214 52 227 12.0 28.0 0.00 0.00 0.00 66 1009.4
20260503211503 51 224 13.0 28.0 0.00 0.00 0.00 67 1009.4
20260503211003 51 228 13.0 24.0 0.00 0.00 0.00 67 1009.5
20260503210713 50 228 12.0 28.0 0.00 0.00 0.00 68 1009.6
20260503210005 50 223 12.0 28.0 0.00 0.00 0.00 67 1009.7
20260503205503 50 223 14.0 32.0 0.00 0.00 0.00 67 1009.8
20260503205003 51 227 14.0 32.0 0.00 0.00 0.00 66 1009.9
20260503204503 51 226 12.0 27.0 0.00 0.00 0.00 65 1009.9
20260503204004 51 223 13.0 27.0 0.00 0.00 0.00 66 1009.8
20260503203503 51 229 12.0 28.0 0.00 0.00 0.00 65 1009.9
20260503203003 51 228 12.0 28.0 0.00 0.00 0.00 65 1009.9
20260503202503 52 226 13.0 28.0 0.00 0.00 0.00 63 1010.0
20260503202214 52 225 12.0 28.0 0.00 0.00 0.00 64 1010.1
20260503201714 52 225 12.0 28.0 0.00 0.00 0.00 63 1010.1
20260503201003 52 223 14.0 27.0 0.00 0.00 0.00 63 1010.1
20260503200505 52 225 15.0 27.0 0.00 0.00 0.00 63 1010.1
20260503200003 52 228 15.0 28.0 0.00 0.00 0.00 60 1010.2
20260503195712 52 230 16.0 28.0 0.00 0.00 0.00 60 1010.3
20260503195213 53 233 14.0 29.0 0.00 0.00 0.00 58 1010.4
20260503194504 53 234 14.0 31.0 0.00 0.00 0.00 56 1010.3
20260503194215 54 230 14.0 31.0 0.00 0.00 0.00 57 1010.5
20260503193503 54 236 17.0 40.0 0.00 0.00 0.00 56 1010.6
20260503193003 53 241 18.0 40.0 0.00 0.00 0.00 56 1010.5
20260503192503 53 238 16.0 40.0 0.00 0.00 0.00 55 1010.8
20260503192003 53 230 17.0 32.0 0.00 0.00 0.00 56 1010.8
20260503191714 52 231 17.0 32.0 0.00 0.00 0.00 55 1010.8
20260503191003 53 243 17.0 32.0 0.00 0.00 0.00 54 1011.0
20260503190503 53 251 17.0 32.0 0.00 0.00 0.00 55 1011.0
20260503190005 53 256 17.0 32.0 0.00 0.00 0.00 53 1011.1
20260503185714 53 251 18.0 31.0 0.00 0.00 0.00 54 1011.0
20260503185213 53 247 16.0 31.0 0.00 0.00 0.00 54 1011.1
20260503184503 53 228 18.0 35.0 0.00 0.00 0.00 52 1011.1
20260503184215 53 232 19.0 35.0 0.00 0.00 0.00 52 1011.2
20260503183503 53 240 19.0 40.0 0.00 0.00 0.00 50 1011.4
20260503183003 53 232 17.0 40.0 0.00 0.00 0.00 50 1011.4
20260503182503 53 230 14.0 40.0 0.00 0.00 0.00 47 1011.5
20260503182003 53 231 14.0 32.0 0.00 0.00 0.00 47 1011.5
20260503181505 53 238 15.0 32.0 0.00 0.00 0.00 45 1011.5
20260503181005 53 241 16.0 36.0 0.00 0.00 0.00 44 1011.8
20260503180505 53 237 16.0 36.0 0.00 0.00 0.00 46 1011.8
20260503180004 53 233 16.0 35.0 0.00 0.00 0.00 45 1011.9
20260503175503 52 230 16.0 35.0 0.00 0.00 0.00 47 1011.8
20260503175003 51 233 15.0 35.0 0.00 0.00 0.00 48 1011.9
20260503174504 50 239 15.0 29.0 0.00 0.00 0.00 50 1012.1
20260503174003 50 233 15.0 29.0 0.00 0.00 0.00 54 1012.2
20260503173503 50 223 14.0 32.0 0.00 0.00 0.00 56 1012.3
20260503173005 50 226 14.0 33.0 0.00 0.00 0.00 59 1012.5
20260503172713 50 231 14.0 33.0 0.00 0.00 0.00 60 1012.6
20260503172004 50 237 13.0 24.0 0.00 0.00 0.00 62 1012.6
20260503171503 50 233 12.0 24.0 0.00 0.00 0.00 64 1012.4
20260503171003 50 231 13.0 27.0 0.00 0.00 0.00 66 1012.7
20260503170505 50 231 13.0 31.0 0.00 0.00 0.00 67 1012.8
20260503151003 50 225 12.0 26.0 0.00 0.00 0.00 66 1013.5
20260503150503 50 225 12.0 22.0 0.00 0.00 0.00 64 1013.6
20260503131003 45 231 10.0 26.0 0.00 0.00 0.00 80 1013.8
20260503130714 45 233 10.0 26.0 0.00 0.00 0.00 80 1013.9
20260503120214 40 216 4.0 14.0 0.00 0.00 0.00 92 1014.0
20260503110503 34 161 4.0 9.0 0.00 0.00 0.00 91 1014.1
20260503110214 34 159 3.0 9.0 0.00 0.00 0.00 91 1014.0
20260503090503 31 200 1.0 3.0 0.00 0.00 0.00 91 1014.2
20260503081504 32 199 1.0 4.0 0.00 0.00 0.00 91 1014.3
20260503081003 32 199 2.0 4.0 0.00 0.00 0.00 91 1014.3
20260503080714 32 199 2.0 4.0 0.00 0.00 0.00 91 1014.3
20260503072503 32 0 0.0 0.0 0.00 0.00 0.00 90 1014.2
20260503072213 33 0 0.0 0.0 0.00 0.00 0.00 90 1014.2
20260503071503 33 0 0.0 0.0 0.00 0.00 0.00 90 1014.2
20260503071003 33 0 0.0 0.0 0.00 0.00 0.00 90 1014.2
20260503070503 33 0 0.0 0.0 0.00 0.00 0.00 90 1014.2